Regional Weather Roundup
Issued by NWS

Home | Current Version | Previous Version | Text Only | Print | Product List | Glossary On
Versions: 1 2 3 4 5 6 7 8 9 10 11 12 13 14 15 16 17 18 19 20 21 22 23 24 25 26 27 28 29 30 31 32 33 34 35 36 37 38 39 40 41 42 43 44 45 46 47 48 49 50
000
ASUS43 KMKX 290210
RWRWI

WISCONSIN REGIONAL WEATHER ROUNDUP
NATIONAL WEATHER SERVICE MILWAUKEE/SULLIVAN WI
900 PM CDT SAT MAR 28 2015

NOTE: "FAIR" INDICATES FEW OR NO CLOUDS BELOW 12,000 FEET WITH NO
SIGNIFICANT WEATHER AND/OR OBSTRUCTIONS TO VISIBILITY.

WIZ001-002-006>008-014>016-023>028-290300-
NORTHWEST WISCONSIN

CITY           SKY/WX    TMP DP  RH WIND       PRES   REMARKS
SUPERIOR ARPT  PTCLDY    37  16  42 SW13      29.98F WCI  29
ASHLAND        PTCLDY    37   9  31 S9        30.02S WCI  30
HAYWARD        PTCLDY    35  12  38 S16       30.04F WCI  25
SIREN          CLEAR     35  17  48 S9        30.03F WCI  28
CUMBERLAND     CLEAR     32  18  55 S8        30.05F WCI  25
RICE LAKE      CLEAR     32  14  48 SE8       30.09S WCI  25
CHETEK         CLEAR     32  14  48 SE6       30.09S WCI  26
LADYSMITH      CLEAR     33  11  39 S8        30.10S WCI  27
EAU CLAIRE     CLEAR     34  12  40 S10       30.11S WCI  26
MENOMONIE      CLEAR     32  17  53 SE8       30.10F WCI  25
NEW RICHMOND   CLEAR     33  20  57 SE9       30.06F WCI  26
OSCEOLA        CLEAR     35  20  55 SE14      30.07F WCI  26
$$

WIZ003>005-009-010-017-018-290300-
NORTH CENTRAL WISCONSIN

CITY           SKY/WX    TMP DP  RH WIND       PRES   REMARKS
MANITOWISH WTR MOCLDY    32  12  44 S6        30.03F WCI  26
ARBOR VITAE    PTCLDY    33  13  43 S9        30.04F WCI  25
WOODRUFF       PTCLDY    33  13  43 S9        30.04F WCI  25
RHINELANDER    CLEAR     32  10  40 SW8       30.08S WCI  25
EAGLE RIVER    PTCLDY    30   9  41 S5        30.05F WCI  25
LAND O LAKES   PTCLDY    32  11  41 S5        30.04F WCI  27
PHILLIPS       CLEAR     33  11  40 SW5       30.06S WCI  29
TOMAHAWK       CLEAR     31  12  45 CALM      30.09S
MEDFORD        FAIR      32  17  54 S7        30.09S WCI  25
MERRILL        CLEAR     33  12  41 SW9       30.10F WCI  26
$$

WIZ029-030-035-036-043>047-290300-
CENTRAL WISCONSIN

CITY           SKY/WX    TMP DP  RH WIND       PRES   REMARKS
WAUSAU         CLEAR     34  13  41 SW9       30.11S WCI  27
MOSINEE        CLEAR     28  14  54 S7        30.14S WCI  21
MARSHFIELD     CLEAR     32  12  43 S10       30.13S WCI  24
STEVENS POINT  CLEAR     31  12  44 SW8       30.16R WCI  24
WAUPACA        CLEAR     33  13  43 S7        30.18S WCI  27
WAUTOMA        CLEAR     32  10  40 S7        30.20S WCI  26
WISC RAPIDS    CLEAR     32  12  43 S6        30.17S WCI  26
CAMP DOUGLAS   CLEAR     32  13  45 S3        30.17S
$$

WIZ011>013-019>022-031-037>040-048>050-290300-
NORTHEAST WISCONSIN

CITY           SKY/WX    TMP DP  RH WIND       PRES   REMARKS
ANTIGO         CLEAR     29  14  53 SW8       30.10F WCI  21
SHAWANO        PTCLDY    35  12  39 S3        30.16F
OCONTO         CLEAR     30  24  78 S7        30.18S WCI  23
STURGEON BAY   CLEAR     28  18  64 S15       30.21F WCI  17
GREEN BAY      CLEAR     30  21  69 S9        30.20R WCI  22
MANITOWOC      CLEAR     28  20  71 S14       30.24R WCI  17
APPLETON       PTCLDY    32  12  43 SW12      30.19S WCI  23
CLINTONVILLE   PTCLDY    32  14  47 S8        30.17R WCI  25
OSHKOSH        CLEAR     31  15  52 S9        30.20S WCI  23
$$

WIZ032>034-041-042-053>061-290300-
SOUTHWEST WISCONSIN

CITY           SKY/WX    TMP DP  RH WIND       PRES   REMARKS
LA CROSSE      CLEAR     35  16  45 SE9       30.15S WCI  28
SPARTA         CLEAR     28  13  54 CALM      30.17S
VIROQUA        CLEAR     32  17  53 SE7       30.15R WCI  25
BOSCOBEL       CLEAR     36  13  38 S6        30.20S WCI  31
PRAIRIE DU CHI CLEAR     37  11  35 SE5       30.18S WCI  33
PLATTEVILLE    CLEAR     31  17  55 SE9       30.20S WCI  23
$$

WIZ056-057-062-063-064-067-068-290300-
SOUTH CENTRAL WISCONSIN

CITY           SKY/WX    TMP DP  RH WIND       PRES   REMARKS
REEDSBURG      CLEAR     31  15  50 S3        30.19S
BARABOO/DELLS  CLEAR     29  13  50 S5        30.19S WCI  24
LONE ROCK      CLEAR     28  18  66 CALM      30.21S
MINERAL POINT  CLEAR     32  14  47 S7        30.19F WCI  26
MADISON        PTCLDY    34  13  41 S7        30.21F WCI  28
MIDDLETON      CLEAR     33  14  45 S7        30.22S WCI  27
WATERTOWN      CLEAR     27  17  66 S3        30.22F
MONROE         CLEAR     30  19  64 S7        30.22S WCI  23
JANESVILLE     CLEAR     34  12  40 S7        30.24R WCI  28
$$

WIZ051-052-058>065-066-070>072-290300-
SOUTHEAST WISCONSIN

CITY           SKY/WX    TMP DP  RH WIND       PRES   REMARKS
MILWAUKEE      CLEAR     27  13  55 S8        30.27R WCI  19
WAUKESHA       CLEAR     27  12  54 S10       30.26R WCI  17
MILWAUKEE/TIMM CLEAR     32  12  43 S9        30.27R WCI  24
RACINE         CLEAR     28  14  55 S9        30.29R WCI  19
BURLINGTON     CLEAR     25  11  56 SE3       30.27R
KENOSHA        CLEAR     26  14  60 S7        30.28R WCI  18
FOND DU LAC    CLEAR     30  15  53 S7        30.21S WCI  23
SHEBOYGAN      CLEAR     26  18  71 S10       30.24S WCI  16
WEST BEND      CLEAR     27  14  59 CALM      30.24R
JUNEAU         CLEAR     30  13  49 S6        30.22F WCI  24
$$

LSZ147-162-290300-
LAKE SUPERIOR

STATION/POSITION TIME  TEMP    WIND        PRES    WAVE
                       AIR SEA DIR/SP/G            HT/PER
                 (UTC) (F)     (DEG/KT/KT) (MB)    (FT/S)
DEVILS ISLAND    0200   39     190/ 12/ 15 1016.2F
PORT WING        0100   39     190/  6/  9 1016.3F
SAXON HARBOR     0100   40     200/  5/ 10 1016.6
$$

LMZ867-665-643>646-290300-
LAKE MICHIGAN

STATION/POSITION TIME  TEMP    WIND        PRES    WAVE
                       AIR SEA DIR/SP/G            HT/PER
                 (UTC) (F)     (DEG/KT/KT) (MB)    (FT/S)
NORTHPORT PIER   0100   29     180/  7/ 13 1022.4
KEWAUNEE LAKESHO 0100   30     200/ 13/ 17 1022.5F
SHEBOYGAN LAKESH 0200   30     190/ 19/ 20 1025.4R
PORT WASHINGTON  0100   31     180/ 14/ 17 1025.1S
MILWAUKEE LAKESH 0100   30     180/  9/ 11   N/A
KENOSHA   LAKESH 0200   30     170/ 14/ 16 1025.4R
$$

TC  - TEMPERATURE IN CELSIUS
VSB - VISIBILITY IN STATUTE MILES
WCI - WIND CHILL INDEX
HX  - HEAT INDEX



USA.gov is the U.S. government's official web portal to all federal, state and local government web resources and services.